Airfield :
LOGIN :

Register | Disclaimer

   EN    FR    IT 

 










Legend :    VFR   Marginal VFR   IFR   Intensive IFR   Very Intensive IFR
Visi :
Ceiling :
>= 8 km
>= 3000ft
5 to 8 km
1000 to 3000 ft
1500m to 5 km
500 to 1000 ft
800 to 1500m
200 to 500 ft
< 800m
< 200 ft
Symbols :   Thunderstorms  Fog  Heavy snow  Heavy precipitations  Wind > 20 kt
SIGMETs :     Misc.  Thunderstorms  Icing  Turbulence  Mountain Waves  Volcanic Ashes






- Airport Elevation : 396 ft


LFOZ - Orléans St Denis

CURRENT METAR :
  • 021330Z AUTO 10004KT 060V170 CAVOK 18/00 Q1027

EXPIRED METARs :
  • 021300Z AUTO 12006KT 090V150 CAVOK 18/01 Q1027
  • 021230Z AUTO 12005KT 070V170 CAVOK 18/02 Q1028
  • 021200Z AUTO 12005KT 080V160 CAVOK 17/02 Q1028
  • 021130Z AUTO 12005KT 080V180 CAVOK 17/04 Q1028
  • 021100Z AUTO 13004KT CAVOK 15/04 Q1028

TAF N/A



MET'MAP, your aeronautical weather chart ! - Copyright ORBIFLY December 2007 - Disclaimer

ORBIFLY MET'MAP TEAM :

Programming & Development : Alexandra Zaïnal
Concept & original design : Baudouin d'Aumeries
Assistance for programming : Marc-Olivier Méhu
Technical & hardware support : Manuel Goepfert

Contact : metmap@orbifly.com




SOURCES & CREDITS :

   NOAA